Theta_e
314 314 318 320 320 320 319 320 321 319 319 316 315 317 316 316 316 317 317 317 317 318 317 316 315 316 319 319 320 320 319 321 322 320 322 323 318 324 331 331 335 336 337 337 337 335 334 334 334 332 330 330 332 331 332 331 331 331 331 332 333 334 333 333 332 332 331 330 331 330 330 330 331 331 329 326 324 324 323 323 321 317 314 312 308 305 305 305 305 307 314 314 315 323 326 327 326
314 316 319 321 320 322 321 321 320 317 316 314 315 317 316 316 317 318 317 317 320 319 317 316 316 317 319 320 320 320 321 322 322 323 323 319 318 323 326 329 333 335 336 336 337 336 335 334 333 333 330 330 332 331 331 329 329 329 331 331 332 333 333 332 332 332 331 330 330 330 329 329 330 329 327 325 325 325 325 324 322 320 315 312 310 306 305 305 307 312 319 321 319 323 325 326 322
315 318 320 321 321 322 322 321 318 315 314 313 314 317 315 316 317 317 317 320 320 317 317 317 317 318 318 320 319 320 323 323 321 323 322 319 324 323 322 327 332 335 335 335 336 336 336 334 332 334 332 331 332 331 330 329 327 327 329 329 329 331 332 332 332 331 330 329 329 329 329 330 330 328 326 326 326 326 326 325 322 321 317 314 311 307 306 306 310 316 321 320 322 326 327 324 317
316 320 320 321 322 322 323 322 319 315 313 313 314 316 316 317 317 317 318 320 319 316 317 318 319 319 318 320 319 319 322 323 321 322 323 322 326 323 321 326 331 335 335 335 335 335 336 334 332 332 332 330 332 331 330 329 327 326 327 326 327 328 329 331 331 330 328 327 327 328 329 330 329 329 328 327 327 327 327 325 322 321 319 315 312 309 306 307 313 320 322 321 323 327 324 318 312
319 321 320 322 324 322 322 320 319 317 315 315 314 316 317 317 317 318 318 318 317 315 316 318 320 319 318 319 318 320 321 322 320 320 322 321 321 321 322 326 331 335 335 335 334 335 336 335 332 330 329 329 330 330 329 328 326 325 325 325 325 325 327 329 329 328 327 327 327 328 329 329 328 328 328 328 328 328 327 324 322 321 319 316 313 310 307 308 315 320 321 320 321 320 317 312 308
320 322 320 321 322 320 321 318 317 317 316 317 316 317 317 317 318 319 318 317 315 315 316 316 319 319 320 320 317 320 320 321 320 318 320 320 320 321 322 326 332 336 336 336 336 336 336 335 333 330 329 330 330 329 329 328 327 326 324 322 322 323 324 326 326 325 326 326 326 327 328 328 328 328 328 328 328 327 326 323 322 321 319 316 313 310 308 308 313 317 315 314 313 312 309 308 307
320 321 320 320 320 320 321 318 317 317 316 315 316 316 317 317 318 318 317 317 316 315 316 315 317 319 320 320 318 319 318 319 319 318 318 318 320 320 323 328 333 337 337 337 337 337 336 335 334 332 331 330 330 329 329 328 328 327 324 322 320 321 322 323 325 326 326 325 325 327 327 327 327 328 327 328 328 326 324 322 322 321 317 315 313 310 309 308 309 310 311 310 309 308 307 307 307
319 320 320 321 322 321 320 318 318 318 315 313 314 315 316 317 316 318 319 318 316 316 316 315 317 318 318 319 320 319 318 317 317 317 318 317 318 319 322 329 334 336 337 337 337 337 336 336 336 334 333 331 330 330 330 329 328 327 325 323 320 320 321 323 325 326 326 325 325 327 327 328 329 327 327 327 327 325 323 322 322 320 316 314 312 310 308 308 307 306 307 307 307 307 307 307 307
319 319 320 321 321 320 319 318 318 317 315 313 313 313 314 315 314 317 318 316 315 315 317 317 317 317 317 318 320 319 317 316 316 316 317 316 317 318 319 326 334 336 337 337 337 337 337 336 336 336 335 334 332 332 331 329 328 327 326 324 321 319 319 322 323 324 325 324 325 327 328 329 329 329 328 327 326 324 323 323 322 319 315 312 310 309 307 307 306 305 306 306 306 306 306 306 306
319 319 321 322 319 318 317 317 318 317 315 314 314 313 313 314 313 315 317 316 315 315 317 317 316 315 317 319 319 318 317 315 316 316 316 316 316 317 317 321 332 337 337 337 337 337 336 336 337 337 336 336 334 333 332 329 327 326 325 324 322 319 319 321 322 323 323 323 325 327 328 329 330 329 327 326 324 323 323 323 323 320 317 313 310 308 307 306 305 304 304 305 305 305 305 305 305
320 319 320 320 317 316 316 317 318 317 315 314 314 313 313 313 313 313 315 315 314 315 316 316 317 316 316 319 319 317 316 315 315 316 316 316 315 317 317 318 329 336 337 336 336 337 336 335 337 337 337 337 335 335 333 329 327 326 324 324 322 320 319 320 321 322 322 323 325 327 328 329 330 329 326 325 324 323 324 324 323 321 318 317 315 313 311 309 308 307 306 305 306 305 306 306 307
320 320 320 319 318 317 317 318 318 317 315 314 315 313 313 313 313 314 314 315 314 315 317 317 317 316 317 318 318 316 316 316 315 315 316 316 316 316 317 317 324 334 337 336 335 336 336 334 336 337 337 337 335 336 334 330 328 326 325 324 322 321 319 319 320 320 321 324 325 326 327 328 330 329 326 325 324 324 325 324 324 322 320 320 320 320 318 316 314 312 311 310 309 309 309 311 313
320 322 321 318 318 319 318 318 317 317 316 315 315 313 313 313 314 315 315 315 315 316 316 317 316 316 318 318 317 316 316 316 315 315 316 316 317 317 318 317 320 331 336 336 335 336 336 334 334 336 336 337 336 335 335 331 329 328 326 325 323 322 320 319 319 319 320 323 324 325 325 326 328 329 327 325 323 323 324 324 325 324 322 320 321 322 322 320 318 316 315 313 313 314 316 317 319
319 321 321 319 316 318 318 318 317 316 316 315 314 312 312 313 314 314 314 315 315 316 316 316 315 315 317 316 316 316 316 316 316 315 315 316 317 317 318 318 320 327 332 334 335 336 335 333 333 335 334 336 336 335 335 333 331 330 328 326 324 322 321 320 319 318 319 321 322 324 324 324 326 328 327 325 323 323 324 324 325 325 323 321 322 323 322 321 319 317 316 317 317 319 320 321 321
317 318 321 319 317 317 317 318 317 317 317 316 314 312 312 313 313 313 314 315 315 315 314 315 314 316 317 316 317 316 315 316 316 315 315 316 316 318 319 319 321 324 329 331 333 335 335 334 334 334 333 335 335 335 335 334 333 331 329 328 325 323 322 321 320 319 320 320 321 323 325 324 325 327 327 325 323 323 323 324 325 325 324 322 322 323 323 321 319 319 319 320 320 321 321 322 322
316 318 321 319 318 317 317 317 317 317 317 316 313 312 313 313 313 313 313 314 315 314 314 315 314 315 316 316 317 315 315 315 316 315 315 316 316 318 320 320 320 321 326 330 332 334 334 334 335 334 334 336 335 335 335 335 334 332 330 329 326 324 323 321 321 321 321 321 321 323 325 325 325 325 326 325 324 324 323 323 324 325 325 323 322 324 323 322 320 320 320 321 322 322 322 322 322
316 318 320 318 317 317 317 317 317 317 317 315 312 312 315 315 313 313 314 313 314 314 314 315 314 315 315 315 315 315 315 315 315 315 315 315 316 318 320 320 319 318 324 330 331 333 333 334 335 334 334 336 336 336 336 335 335 334 331 330 328 325 324 323 322 322 322 322 322 323 325 325 325 325 325 325 325 324 323 323 324 325 325 324 323 324 324 322 321 321 322 322 322 322 322 322 322
316 319 318 316 317 318 318 318 317 317 317 315 313 313 315 315 313 313 314 314 314 314 314 314 315 315 315 315 315 315 315 315 314 315 314 315 316 317 319 319 318 317 321 327 330 332 332 333 334 333 333 333 334 336 337 335 335 335 333 332 329 327 325 324 323 323 323 323 323 324 325 325 325 326 325 325 325 324 323 323 324 325 325 324 323 324 324 323 321 321 321 322 322 322 322 322 322
317 318 316 316 319 317 316 318 316 316 316 316 313 313 315 315 314 314 315 315 314 314 315 314 314 315 315 315 315 315 315 315 314 314 314 314 315 316 318 318 318 318 318 320 327 332 332 333 333 331 333 334 333 335 335 335 335 335 334 333 331 328 327 326 325 325 325 325 325 326 326 325 325 326 325 324 324 324 324 323 324 325 325 325 324 324 324 324 322 322 321 321 322 322 322 322 322
316 316 316 317 318 316 314 315 315 314 314 315 314 312 313 315 314 314 315 316 315 315 317 315 315 315 315 315 315 315 315 314 314 314 314 313 313 314 316 317 317 318 318 316 321 328 328 330 331 329 332 334 333 333 333 333 334 334 335 335 333 330 328 327 327 326 326 327 327 326 326 326 325 325 325 325 324 324 324 323 324 325 325 325 325 324 324 324 323 323 323 322 322 322 322 322 322
315 315 316 315 314 315 314 313 313 312 314 314 314 313 313 314 313 314 315 315 316 316 317 316 316 316 315 315 315 315 315 315 314 314 314 313 313 313 314 316 317 317 317 317 318 321 322 324 327 328 331 331 329 330 331 334 334 333 334 335 334 332 330 328 328 327 327 328 328 327 326 327 326 325 325 325 325 325 324 324 324 325 326 326 325 324 324 324 324 324 323 323 323 323 323 322 322
315 314 313 312 312 315 314 311 312 312 313 313 313 313 314 314 313 314 315 316 317 317 317 316 316 316 315 315 315 315 315 315 315 314 314 314 313 313 314 314 317 316 315 318 317 319 323 325 326 330 332 330 328 327 329 335 334 332 334 333 333 333 332 330 329 328 327 327 327 327 327 327 326 326 325 325 325 325 325 325 325 325 326 326 325 324 324 324 324 324 324 324 323 323 323 322 322
315 314 311 311 312 315 313 312 313 312 312 313 314 314 313 313 314 313 314 316 317 316 316 316 316 315 315 315 315 315 315 315 315 315 315 314 314 313 314 313 314 315 315 317 317 318 325 330 331 332 333 332 331 328 326 330 331 330 331 332 332 333 333 332 331 329 328 327 327 327 327 328 327 327 326 326 326 325 325 326 326 325 326 325 325 324 324 325 325 325 324 324 324 323 322 322 320
316 315 312 311 311 313 313 313 313 312 313 313 313 314 313 314 315 313 313 315 316 316 315 315 315 315 315 316 315 315 315 315 315 315 315 314 315 313 313 313 313 314 314 316 317 318 323 330 333 333 333 333 333 331 325 323 326 328 330 332 331 332 332 333 333 331 329 328 328 327 328 329 329 328 327 327 327 327 326 326 327 326 327 326 325 325 324 325 325 325 324 324 324 323 322 321 317
316 315 313 312 311 312 313 312 312 312 312 312 312 313 314 313 314 313 313 315 315 316 316 315 315 315 315 316 316 316 315 315 315 315 315 314 315 314 313 313 313 314 314 314 316 317 319 323 328 331 332 333 333 332 326 322 329 334 334 334 333 331 331 331 332 331 330 330 329 328 329 329 329 329 328 328 328 327 327 328 328 328 327 327 326 325 325 326 325 325 325 324 324 322 321 319 314
315 314 313 313 313 312 313 312 312 312 312 312 313 314 313 312 313 314 315 316 316 316 316 316 316 315 315 315 315 316 315 315 315 314 315 315 314 314 314 314 313 314 314 314 314 315 315 316 320 323 325 329 331 332 327 324 332 337 336 336 333 331 328 327 330 331 331 331 331 330 330 329 329 329 329 329 328 328 329 329 329 328 328 327 326 325 325 326 326 325 325 324 323 322 321 317 312
313 313 313 314 313 313 313 313 312 313 313 313 314 315 313 312 313 316 318 316 316 316 316 316 316 315 315 315 315 315 315 315 315 315 315 314 314 314 314 314 313 314 314 314 314 314 315 314 315 316 317 319 322 326 324 322 328 333 337 337 333 333 329 325 326 329 331 331 331 331 330 330 329 330 329 328 328 329 329 328 328 328 328 328 327 326 325 326 325 325 325 324 322 321 319 314 310
313 313 314 314 314 313 313 314 313 313 314 313 313 314 313 312 312 316 318 316 316 316 316 316 316 315 315 315 314 314 314 315 315 315 315 315 315 314 314 314 314 314 313 313 314 314 314 315 314 314 314 315 315 318 319 320 322 325 330 331 332 336 333 328 326 327 331 331 330 331 330 329 328 330 330 328 329 330 329 328 328 328 327 327 326 325 325 325 325 325 324 322 321 321 317 311 307
313 314 315 316 315 315 313 313 312 313 315 313 313 314 314 313 314 316 317 316 316 315 316 316 315 316 315 315 315 314 314 314 315 315 315 315 315 314 314 314 313 313 313 313 313 314 314 314 314 313 313 314 314 315 316 319 320 319 320 322 329 335 333 331 328 325 328 329 329 328 328 327 327 329 330 329 328 329 329 329 328 327 327 326 326 325 325 325 324 324 323 321 321 319 315 309 306
314 314 315 317 317 316 314 312 312 312 314 313 313 315 317 317 316 317 316 315 315 315 315 315 315 315 315 315 315 315 315 315 315 315 315 315 315 315 314 313 313 312 313 313 313 313 314 314 314 313 313 313 313 314 314 316 317 319 318 319 325 330 330 330 326 323 325 329 329 326 326 328 329 329 330 329 328 328 328 329 327 327 327 326 325 325 324 324 323 322 322 320 320 317 312 308 305
315 314 315 316 316 316 314 311 312 314 313 312 314 315 317 318 318 317 316 315 315 314 315 315 315 315 315 315 315 315 315 315 315 315 315 315 315 315 314 314 313 313 313 313 313 313 313 313 314 313 313 313 313 313 313 314 314 315 318 319 322 324 326 325 323 324 327 330 330 326 326 329 329 328 329 329 328 327 328 328 327 327 327 326 325 324 324 324 322 322 321 320 320 316 311 308 305
314 314 316 316 315 316 315 311 311 314 313 311 314 316 317 318 318 316 315 315 314 314 315 315 315 316 315 315 315 316 316 316 315 315 315 315 315 315 314 314 313 313 313 313 313 312 312 313 313 313 313 313 313 313 314 313 313 313 314 317 318 320 321 320 322 326 329 330 331 327 325 327 326 326 329 329 326 326 328 328 327 327 326 325 325 324 324 323 322 322 321 320 319 315 311 309 305
315 314 316 317 315 316 315 312 309 311 312 312 313 315 317 317 316 315 315 315 313 313 314 315 315 316 316 316 316 316 316 316 315 315 315 315 315 315 314 314 314 314 313 313 313 312 312 312 312 313 313 313 313 314 314 313 313 313 313 313 315 317 320 321 324 327 330 331 331 328 326 326 324 325 329 327 324 325 327 328 327 326 326 325 324 324 323 323 322 321 320 319 317 314 311 308 304
316 315 316 316 315 314 314 314 310 309 311 313 313 314 316 317 317 315 315 315 313 312 314 315 315 315 316 316 316 316 316 316 317 316 316 315 315 315 314 314 314 314 314 313 313 312 312 312 312 313 313 313 314 314 314 314 313 313 314 314 315 319 324 328 329 330 332 332 330 328 326 325 325 327 329 326 324 323 324 326 326 325 324 324 323 323 323 322 321 320 319 319 316 312 308 305 303
316 316 316 315 314 313 314 315 312 310 311 313 314 314 315 316 317 316 316 315 314 313 314 314 315 315 315 316 316 317 317 317 318 317 317 316 315 315 314 314 314 314 313 313 313 312 312 312 312 312 313 313 313 314 314 313 313 314 314 313 316 323 329 331 331 330 330 330 328 327 327 327 327 329 328 326 325 323 323 324 325 324 323 323 323 322 322 321 321 320 318 318 315 309 306 304 302
316 317 316 315 315 314 315 314 311 310 312 314 314 315 315 316 317 317 317 315 314 313 313 314 314 315 315 316 317 317 318 318 318 318 317 316 316 315 314 314 314 314 313 313 312 312 311 312 312 312 313 313 313 314 313 313 313 313 313 314 317 325 331 330 329 329 329 328 327 327 328 328 328 327 326 325 325 324 324 324 324 324 323 323 322 322 322 321 320 319 318 317 313 307 304 303 302
315 316 316 316 316 315 315 314 310 309 313 315 315 315 316 316 316 317 317 316 314 314 314 314 314 315 316 317 318 318 318 319 319 318 318 317 316 316 315 314 314 313 313 313 312 312 311 311 312 312 313 313 313 313 313 313 313 313 314 318 320 323 325 326 325 324 325 325 326 328 328 326 326 325 324 324 324 324 324 324 324 323 323 323 323 322 322 320 319 318 318 316 311 306 303 302 301
314 315 315 316 316 315 315 314 310 309 312 315 315 315 315 315 315 316 316 316 315 315 315 316 316 316 317 317 318 319 319 319 319 318 318 318 317 316 315 315 314 314 313 313 313 312 312 311 311 312 313 313 313 313 314 313 313 315 316 320 324 323 322 322 321 320 322 324 326 328 327 325 325 324 323 323 323 323 324 323 322 322 323 323 322 321 321 320 318 317 317 314 308 305 303 301 301
314 315 315 316 316 315 315 313 310 310 312 315 315 314 315 315 315 316 317 317 316 317 316 316 317 317 317 318 318 319 319 318 318 318 318 318 317 316 315 315 314 314 313 313 313 312 312 311 311 312 312 313 313 313 314 313 315 317 317 319 324 324 323 323 322 322 324 327 327 327 326 324 324 323 322 321 320 321 322 322 320 321 323 323 321 321 320 319 318 317 316 312 306 303 303 301 300
315 316 315 316 317 316 315 314 311 310 311 313 314 314 315 316 316 317 318 317 317 317 316 316 316 316 317 318 318 317 317 317 317 317 317 317 317 317 316 315 315 314 314 313 313 313 312 311 311 312 312 312 313 313 313 314 315 316 317 320 323 324 324 324 324 324 325 325 325 325 324 323 324 323 321 321 320 320 321 321 319 319 322 322 321 320 319 319 318 316 313 307 303 302 301 300 300
316 316 316 317 317 316 315 314 313 312 312 311 313 315 317 318 318 319 318 317 316 315 315 315 316 317 318 318 318 317 317 317 317 317 317 316 316 316 316 315 314 313 313 313 313 313 312 312 311 311 312 312 313 313 312 313 314 316 320 324 325 326 325 324 323 323 324 324 324 324 324 324 324 322 321 321 320 320 321 320 319 320 322 321 320 319 318 318 317 313 306 302 301 301 300 300 299
316 316 315 315 316 316 315 314 314 315 316 313 314 316 317 318 318 319 319 317 317 317 316 316 317 317 318 318 319 319 318 318 318 318 317 317 316 315 314 314 313 313 313 313 313 313 312 312 311 311 312 312 312 312 312 312 314 317 322 325 325 326 325 322 322 322 324 325 325 325 325 324 322 321 320 320 320 321 320 320 320 321 321 319 318 318 318 318 314 307 302 300 300 300 299 299 299
316 316 315 314 315 315 315 315 315 317 318 314 313 317 318 318 317 318 319 318 318 319 319 319 318 318 318 318 319 319 319 319 319 318 317 317 316 315 314 313 313 313 313 312 312 312 312 311 311 311 311 312 312 312 312 313 315 318 321 324 325 325 323 321 322 324 324 325 326 325 324 322 321 320 319 318 319 319 319 320 320 319 319 318 317 318 317 315 309 303 300 299 299 300 300 299 299
317 317 315 314 314 315 315 315 316 317 317 315 315 318 319 318 318 318 318 318 318 318 319 320 320 320 319 318 319 318 319 319 318 319 318 318 317 316 315 314 313 312 312 312 312 312 312 311 311 311 311 312 312 312 314 314 314 318 321 322 322 323 321 322 324 325 325 325 325 324 322 321 320 319 317 317 317 317 318 319 318 318 318 317 317 318 315 309 304 300 299 299 299 300 300 299 299
317 313 312 312 313 315 315 315 316 316 316 318 318 317 318 319 318 317 317 318 318 319 319 320 321 321 319 318 318 318 319 319 318 319 319 318 318 317 315 314 313 312 312 311 311 311 312 311 311 311 311 311 311 312 315 314 313 318 322 320 319 320 321 323 324 323 323 323 323 323 321 320 319 318 317 316 315 316 318 317 317 317 317 316 317 315 310 304 301 299 300 301 301 300 300 300 300
314 310 311 313 313 314 315 316 317 317 318 320 319 317 316 317 318 317 316 317 318 319 319 320 322 320 319 319 319 319 319 319 319 318 319 319 318 317 315 314 312 312 311 311 311 311 311 311 311 310 311 311 311 312 313 312 313 318 321 319 320 322 323 323 322 321 321 322 322 322 320 319 318 318 317 315 315 316 317 316 316 316 316 316 314 308 303 300 299 299 301 301 301 301 302 302 301
311 313 315 316 315 314 316 316 317 318 320 320 320 319 317 316 318 319 318 318 318 320 319 320 321 320 319 319 319 319 319 319 319 318 318 319 318 318 316 315 314 312 312 311 311 311 310 311 310 310 310 311 311 311 312 312 313 316 317 317 320 323 322 320 318 319 321 322 322 321 319 317 317 318 316 314 315 316 316 316 316 316 315 314 308 302 300 299 299 300 301 301 302 302 302 302 301
312 317 318 318 317 316 317 317 318 319 319 318 316 317 318 318 318 318 318 317 317 318 319 320 322 320 319 319 319 319 319 319 319 318 318 318 318 318 317 317 316 314 313 312 311 311 310 310 310 310 310 310 311 311 311 313 315 316 317 316 318 321 321 319 317 319 321 321 320 320 318 317 316 316 315 313 314 316 316 314 315 315 312 306 301 299 299 299 300 301 301 302 303 303 302 301 301
314 317 318 318 317 316 318 319 319 319 318 315 312 314 317 318 318 318 317 316 316 317 317 319 321 320 318 319 319 319 318 318 318 318 318 318 318 318 317 317 316 315 314 313 312 311 310 310 310 310 310 310 311 311 311 313 315 318 318 317 316 319 320 319 318 318 320 320 319 319 318 316 316 316 314 313 314 316 315 313 315 313 307 300 299 299 298 299 300 301 302 302 302 302 302 301 300
314 318 318 317 317 317 319 318 316 316 317 313 310 314 317 318 317 318 317 317 318 318 317 317 318 318 318 318 318 318 318 317 317 318 318 318 318 317 317 316 316 315 314 313 312 311 310 310 310 310 310 310 310 310 310 312 315 317 318 317 316 318 320 319 318 318 319 320 319 318 317 316 316 316 315 313 314 315 314 313 314 309 301 298 299 298 298 299 300 301 302 302 302 302 301 300 299
315 318 318 317 317 317 317 317 315 316 317 313 311 314 318 318 317 317 316 317 318 317 317 317 317 318 318 318 317 317 317 317 317 317 317 317 317 317 316 315 315 314 314 313 312 311 310 310 310 310 310 310 310 310 310 311 313 314 315 315 316 318 318 318 318 319 319 320 318 317 317 317 316 316 315 313 313 314 314 313 311 304 299 298 298 298 299 299 300 301 301 301 301 300 300 299 299
315 315 317 317 317 315 314 315 315 314 316 315 313 315 317 317 317 316 315 315 315 315 315 315 316 318 318 317 318 318 318 317 317 318 317 317 317 316 316 316 315 314 313 313 312 312 311 310 309 310 310 310 310 310 311 312 312 312 312 312 314 317 317 318 318 319 319 319 318 318 317 316 315 315 314 312 312 314 313 310 305 299 298 298 297 298 299 299 300 300 300 300 299 299 298 298 297
315 314 316 316 315 315 315 314 312 312 316 317 316 316 317 316 317 317 316 316 315 314 314 314 314 317 316 316 318 319 318 318 318 318 318 317 316 316 315 315 315 315 314 313 312 312 311 310 309 310 310 310 310 310 311 312 312 313 313 313 314 316 317 317 319 319 319 319 318 317 316 315 314 313 313 312 312 313 311 306 300 298 298 298 297 298 299 299 300 299 299 298 298 297 297 297 296
315 315 317 315 314 315 315 316 316 316 318 318 317 317 317 317 318 317 316 317 316 315 315 315 315 316 315 315 317 318 318 317 317 318 317 317 316 316 315 315 314 314 313 313 312 311 311 310 309 310 310 310 310 310 311 311 312 313 314 315 315 316 317 317 318 318 318 318 317 316 315 313 313 313 312 311 311 311 308 302 298 298 298 297 297 298 298 298 298 298 297 297 296 296 296 295 295
313 314 315 315 317 318 316 317 318 319 319 319 317 316 316 317 318 317 318 319 318 317 317 316 316 316 315 315 317 318 317 317 317 317 317 317 317 316 315 314 313 313 312 311 311 311 310 310 309 309 310 310 310 310 311 311 312 313 313 314 315 315 316 316 318 318 318 317 316 315 314 313 312 312 312 311 311 310 305 300 298 298 297 297 297 297 297 297 296 296 296 296 295 295 295 295 294
311 313 314 314 316 318 317 317 317 318 318 318 318 317 317 318 319 317 318 319 319 319 320 319 317 316 317 317 317 318 318 318 317 317 317 317 317 316 315 314 313 313 312 311 310 310 310 310 309 309 309 310 310 310 311 311 313 313 313 314 316 316 316 316 317 318 317 316 314 314 313 312 311 311 311 310 310 308 303 299 298 297 297 296 296 296 296 296 295 295 295 295 295 295 294 294 294
313 314 315 314 314 315 316 316 315 316 318 317 318 319 318 319 320 318 317 318 318 318 320 321 319 317 318 318 318 318 318 318 317 317 317 317 316 316 315 314 313 312 312 311 310 310 309 309 309 309 309 310 310 310 310 311 313 314 314 315 317 317 317 317 317 317 316 314 313 313 313 311 311 311 311 310 309 307 301 298 297 297 296 296 295 295 295 295 295 295 295 295 295 294 294 294 294
316 316 317 316 315 315 317 317 315 315 317 317 318 319 319 319 320 318 317 318 318 319 320 321 319 317 318 318 318 318 317 317 317 317 317 316 316 316 315 315 314 313 312 311 310 310 309 309 309 309 309 310 310 310 310 311 312 314 315 315 316 317 317 317 317 316 314 313 313 312 312 311 311 310 310 310 309 305 300 297 296 296 296 295 295 295 295 295 295 295 295 295 294 294 294 294 294
Wind_Speed
7 8 8 9 8 7 5 1 1 3 1 1 2 0 3 1 2 2 4 3 2 2 3 2 5 10 5 2 2 3 2 2 2 2 1 5 15 18 16 15 15 14 13 11 12 11 12 12 11 11 11 12 12 11 10 9 9 9 9 9 9 9 9 10 10 11 12 12 12 12 11 10 11 11 12 13 14 14 14 15 16 17 16 16 15 15 15 15 14 14 16 17 19 18 16 14 13
8 9 9 9 7 5 3 1 0 1 1 2 2 1 3 2 2 4 4 2 1 4 6 5 7 9 4 1 0 2 2 3 1 1 2 11 17 17 16 15 15 15 13 12 12 11 11 11 11 11 11 12 12 11 10 10 10 9 9 9 9 8 9 9 10 11 11 11 11 10 9 10 11 11 11 12 13 13 14 14 16 17 17 16 15 15 15 15 15 15 17 18 20 18 15 14 13
9 10 10 8 6 4 3 1 0 1 0 2 2 2 3 3 4 4 4 5 7 10 10 9 8 6 3 2 3 3 1 2 4 5 8 15 14 14 15 14 16 16 14 13 12 11 10 10 10 10 10 11 11 10 10 9 9 9 9 9 8 8 8 9 9 10 10 10 10 9 9 9 11 11 11 11 12 13 13 14 15 16 16 16 15 15 15 15 15 16 18 19 20 18 16 14 13
10 10 10 8 5 4 2 1 1 0 1 1 1 4 4 4 5 5 7 9 13 12 8 7 4 4 5 3 2 2 0 2 7 9 12 16 14 15 16 15 17 16 16 15 13 12 10 10 10 10 10 10 10 9 9 8 8 8 8 8 8 8 8 8 9 9 9 9 8 8 8 8 9 10 9 10 11 12 13 13 14 16 16 16 15 14 14 14 15 17 18 19 19 17 15 13 12
9 10 9 6 3 2 1 1 1 1 1 1 1 5 6 4 7 7 9 10 10 8 4 4 2 3 4 2 2 1 2 4 8 11 13 16 15 16 15 15 18 17 17 15 15 13 11 11 10 10 10 10 9 8 8 7 7 6 6 6 7 7 8 8 8 8 8 8 8 7 7 7 8 8 8 9 10 11 12 13 14 15 15 15 14 13 13 14 15 17 18 18 17 15 14 13 12
9 8 8 6 4 2 1 1 1 1 3 1 1 5 6 5 8 10 10 8 5 3 2 2 1 3 2 3 4 3 6 6 7 11 13 15 15 15 15 16 18 16 16 15 15 13 12 12 10 10 9 9 9 8 8 7 7 6 6 6 6 7 7 8 8 7 7 7 7 6 6 6 7 6 7 8 9 10 11 12 13 14 14 14 13 13 12 13 14 15 16 16 16 15 14 13 13
9 7 6 6 5 2 1 1 1 2 3 2 3 4 7 7 8 11 10 7 5 4 4 4 3 3 2 3 4 6 9 9 10 11 12 14 14 15 15 17 19 16 15 15 14 13 13 13 11 10 9 9 9 8 7 7 7 7 7 6 6 8 8 8 8 7 7 7 7 6 5 5 5 5 6 7 9 9 11 11 13 14 14 14 12 11 11 12 13 13 15 15 15 15 15 14 15
9 5 4 4 2 2 0 1 1 1 2 1 2 1 5 7 8 9 10 6 3 4 5 6 6 3 2 4 3 6 9 9 12 11 12 12 13 14 14 18 19 17 16 15 14 14 15 14 12 11 9 9 9 8 7 7 7 6 6 5 5 7 8 8 8 7 7 7 6 5 5 5 5 5 6 7 9 10 10 11 13 14 14 14 12 11 10 11 12 13 14 15 15 15 16 16 17
7 5 3 3 1 1 1 1 1 1 1 1 2 1 3 8 8 8 9 5 2 4 4 6 8 3 3 6 2 6 9 9 12 11 12 11 12 14 14 18 18 16 17 15 14 14 15 14 13 12 10 9 9 8 7 7 7 6 5 4 4 6 7 7 7 7 7 7 6 5 4 4 4 5 6 7 9 10 10 11 12 14 14 14 13 12 12 12 13 14 15 16 16 16 17 17 18
5 4 4 2 2 2 2 1 1 1 1 1 2 3 5 10 9 6 7 5 4 4 5 8 8 3 2 5 3 7 10 9 11 11 12 11 11 12 13 17 18 16 17 16 14 13 13 13 13 12 11 9 9 7 7 6 6 5 4 4 4 5 7 7 7 6 6 6 5 5 4 3 4 5 5 7 8 10 9 10 12 13 14 14 14 13 13 14 14 15 16 17 17 18 18 18 19
3 3 3 2 2 2 2 2 2 2 2 1 2 4 7 11 8 5 5 3 5 4 6 10 6 4 4 3 4 8 11 10 11 12 12 11 11 12 14 17 19 16 15 17 15 13 13 12 12 12 11 10 9 8 7 6 6 6 5 5 4 5 7 7 6 5 5 5 5 4 3 3 4 4 5 6 8 9 9 10 11 13 13 14 14 14 15 15 15 16 17 17 18 18 19 19 20
2 2 2 3 2 1 1 2 3 3 2 3 4 6 9 12 8 6 6 3 6 5 7 10 4 4 5 2 5 9 12 12 12 13 12 12 12 13 14 17 20 17 14 16 15 15 14 13 12 13 13 11 10 9 8 8 8 7 6 6 5 5 6 7 6 4 4 4 4 3 3 2 3 3 4 6 7 8 8 9 10 11 12 13 14 15 15 15 16 17 17 17 18 19 19 20 20
1 2 3 2 0 0 1 1 2 2 2 5 4 7 11 11 8 6 7 4 6 5 6 12 7 3 4 1 6 11 13 13 13 14 13 12 13 14 15 17 19 19 16 16 16 16 16 14 13 14 14 12 11 10 9 9 9 8 7 6 6 6 6 6 6 5 4 4 4 3 2 1 1 2 3 4 6 7 7 7 8 9 10 11 12 14 14 15 15 16 17 17 18 19 19 19 19
3 3 1 2 1 0 2 1 3 3 3 5 5 10 13 9 7 6 6 5 7 6 5 12 11 3 4 3 5 12 14 14 14 14 14 14 14 15 16 16 19 21 19 20 20 18 18 17 15 15 13 13 12 11 11 11 10 10 8 7 7 7 7 6 6 6 5 5 5 3 2 2 1 1 1 3 5 6 5 6 6 7 9 10 11 12 13 14 15 15 16 17 18 18 18 18 17
7 5 2 2 2 2 3 0 2 5 3 7 7 12 12 7 8 8 7 7 6 9 5 8 12 4 3 4 3 10 14 14 15 15 15 15 15 16 17 17 19 23 22 22 23 20 19 19 18 17 15 14 14 12 12 12 12 11 9 9 9 8 8 7 7 6 6 6 5 4 4 3 3 2 1 2 3 4 4 3 4 5 7 8 10 11 12 13 14 15 16 16 16 16 16 15 15
8 5 1 2 2 2 3 2 2 3 2 6 9 12 10 6 8 8 8 8 4 10 9 6 13 8 3 4 2 6 12 15 16 16 16 16 16 17 17 18 19 22 24 23 24 22 21 20 19 18 16 15 15 13 12 11 12 11 10 10 9 9 9 8 8 7 7 7 6 5 5 4 4 3 2 1 1 2 2 2 2 4 5 7 8 10 11 12 13 14 14 14 14 13 13 13 14
8 4 1 2 2 3 4 5 4 2 2 6 10 13 9 5 8 8 8 9 6 8 11 9 12 13 8 6 5 5 9 14 16 16 17 17 17 18 18 19 17 19 24 25 25 25 24 22 20 19 17 16 15 14 13 13 13 12 10 11 11 10 10 10 9 8 8 8 7 6 6 5 5 4 3 1 1 1 1 1 1 3 5 6 7 8 9 10 11 12 12 12 12 11 11 12 13
5 2 3 3 2 3 4 7 5 1 2 8 11 13 9 5 8 8 6 8 9 9 11 13 12 14 14 10 8 6 8 12 16 17 18 18 18 19 20 20 18 18 21 24 25 26 26 23 22 21 18 17 17 15 15 14 14 14 13 13 13 12 12 11 10 10 9 9 8 7 7 6 5 5 4 3 3 4 3 2 1 2 4 6 6 7 7 8 10 10 10 9 10 10 10 11 13
2 1 2 3 2 2 2 6 5 1 1 8 10 13 10 5 7 9 7 6 8 9 10 13 14 15 16 15 13 11 9 11 15 18 19 19 19 20 21 20 19 18 19 20 23 26 26 25 23 21 19 18 17 17 17 15 14 16 15 14 15 14 13 12 12 12 11 10 9 8 8 7 7 6 6 5 5 5 4 3 2 2 3 6 6 6 6 7 8 8 8 8 8 8 8 10 12
1 1 4 2 2 1 2 5 6 3 3 7 9 11 8 4 7 9 6 4 6 10 11 11 15 18 18 18 17 15 14 12 14 18 20 20 20 20 21 21 19 18 19 18 21 24 24 25 23 21 20 19 19 18 17 16 16 17 17 16 16 16 15 14 14 13 12 11 10 10 9 9 8 7 7 6 6 6 5 4 2 2 3 6 6 6 6 7 7 7 7 6 6 6 7 9 10
1 1 1 2 2 1 3 7 6 4 3 5 7 8 7 6 9 9 6 5 7 13 16 14 15 17 17 17 17 17 17 15 15 17 20 21 21 21 21 21 19 18 19 17 19 22 22 23 23 22 22 20 20 19 19 19 18 18 19 18 17 17 16 16 16 15 14 13 11 10 10 10 9 8 8 8 6 6 5 3 2 2 2 5 7 6 7 7 7 6 6 5 4 5 6 7 9
3 1 2 3 2 1 3 6 7 4 2 5 7 7 7 7 9 10 9 9 7 8 14 15 14 14 15 15 16 17 18 18 17 17 19 21 21 22 22 21 19 17 17 17 18 21 22 22 23 23 22 21 20 20 22 23 20 19 20 20 20 18 17 18 18 18 16 15 13 11 11 10 10 9 8 8 7 5 5 4 3 3 2 5 7 7 7 8 6 5 5 4 4 5 6 7 8
2 1 1 2 2 2 3 5 5 5 5 6 7 7 7 8 7 11 15 17 12 9 11 10 10 12 13 14 15 17 17 18 17 17 18 20 21 22 21 20 19 18 18 19 19 20 22 23 24 23 23 23 22 22 22 24 23 21 21 22 22 21 20 19 19 19 18 17 16 13 11 10 10 10 9 9 8 6 5 5 4 4 2 4 8 8 7 8 6 3 3 3 4 5 6 7 8
1 3 3 3 2 2 2 4 4 6 6 5 7 7 7 8 7 8 17 24 21 18 18 15 14 13 13 13 14 15 16 17 16 17 18 20 20 21 21 20 19 19 19 20 19 20 23 24 26 26 25 25 25 25 23 24 23 21 22 22 22 22 21 20 19 20 19 18 17 15 12 11 11 11 11 9 8 6 6 6 6 5 4 5 8 9 8 7 4 2 1 3 4 5 6 7 9
1 4 4 3 2 1 2 4 5 6 4 5 6 6 5 7 7 8 18 23 21 21 21 20 20 19 18 17 16 16 16 16 16 17 19 20 21 22 22 21 20 20 19 19 20 21 22 24 27 28 28 27 27 26 25 24 22 22 24 24 24 23 22 21 20 21 20 19 18 17 14 12 12 11 11 11 8 7 6 8 9 9 8 7 8 10 9 6 3 2 1 3 4 6 6 8 10
3 4 4 4 2 1 2 3 4 4 3 4 5 4 3 5 5 11 21 22 21 22 22 22 22 22 22 21 20 20 20 20 19 19 20 20 22 23 23 23 22 21 21 20 20 21 21 22 25 27 28 29 30 29 27 26 25 24 24 25 26 25 24 23 23 22 21 20 20 19 16 14 14 13 14 12 10 10 9 10 13 13 11 9 9 10 10 7 3 3 1 2 4 5 6 8 9
5 5 5 4 2 2 2 2 3 3 4 4 5 2 1 3 2 8 13 13 15 16 18 21 22 23 23 22 22 22 22 22 22 22 22 22 23 24 24 24 23 22 21 20 21 22 21 20 21 23 24 26 28 30 30 29 29 27 24 23 24 26 26 23 23 24 22 22 22 19 17 15 16 15 15 12 12 14 11 11 14 16 15 12 10 9 10 8 4 3 2 3 5 5 5 8 8
5 4 4 3 1 1 3 3 4 4 3 4 3 2 3 3 4 12 12 10 13 12 15 17 18 20 20 20 21 21 22 22 22 23 23 24 24 24 24 23 22 22 21 20 21 22 22 21 21 21 22 23 24 27 29 30 30 31 30 27 24 24 24 21 21 24 24 23 21 19 19 18 18 17 15 12 12 14 13 12 13 17 18 14 11 9 9 9 5 3 4 5 6 5 5 7 8
4 3 2 2 1 2 3 2 4 4 2 2 0 5 7 8 13 20 17 16 18 17 19 19 19 20 20 20 20 21 21 21 23 24 24 24 24 23 23 23 22 22 21 21 21 21 23 23 23 22 21 22 23 24 26 29 30 31 32 31 28 25 23 22 22 23 25 23 20 19 20 22 20 17 16 14 13 13 15 15 12 14 18 14 11 10 9 9 4 3 5 7 6 5 6 7 9
4 3 2 2 3 2 2 1 2 4 2 3 2 6 6 10 18 21 17 19 18 19 21 20 20 20 20 21 21 22 22 23 23 23 23 24 24 23 23 23 23 23 23 23 22 22 23 24 24 23 22 22 23 24 25 27 29 30 30 30 31 31 30 29 26 22 22 22 20 18 19 22 21 17 17 17 15 15 15 15 12 13 17 15 12 11 10 8 4 3 5 6 5 5 6 7 9
1 1 1 1 2 1 3 2 2 4 3 5 4 7 6 4 10 13 14 17 17 19 20 18 20 20 20 20 21 23 23 24 24 23 23 23 24 24 24 25 25 26 25 24 23 22 24 25 25 24 24 24 24 25 26 26 28 29 30 31 32 33 33 31 27 23 22 23 22 17 17 21 20 17 19 19 16 16 16 17 15 14 17 17 14 12 11 8 5 5 6 5 4 5 6 7 9
2 2 2 1 2 1 2 2 2 1 2 7 6 6 7 5 5 6 10 13 14 19 20 18 20 19 19 20 20 22 23 24 24 24 24 23 24 25 25 26 26 27 26 24 24 23 25 26 27 26 25 25 25 25 25 25 26 27 29 31 32 32 29 26 26 26 26 27 26 19 16 20 20 19 22 21 15 14 17 19 16 14 16 17 15 13 12 10 9 9 9 6 3 4 6 7 10
1 2 2 1 2 2 1 2 1 1 2 6 8 5 6 3 2 2 3 6 9 15 19 19 19 18 17 18 20 22 23 25 25 25 25 24 25 25 26 27 27 27 26 25 24 24 25 27 27 27 26 25 25 25 24 24 25 25 25 26 27 27 25 24 25 28 29 30 27 21 18 21 22 22 23 20 14 11 14 17 15 13 14 15 15 13 13 13 12 12 10 6 4 4 7 10 12
2 1 2 1 2 2 3 1 3 0 1 5 8 8 12 9 4 4 5 9 11 13 19 21 21 21 21 21 22 24 25 26 26 25 24 23 24 25 26 27 28 28 27 26 25 24 26 27 28 28 27 26 25 25 24 24 24 24 22 21 22 23 24 24 25 25 27 27 25 22 22 24 23 22 22 19 15 13 13 15 14 12 14 16 16 15 15 15 14 12 9 5 4 6 9 12 12
2 3 2 1 2 4 5 3 2 2 2 5 8 10 15 16 14 14 14 18 20 20 23 27 28 29 29 29 30 30 30 30 28 25 23 23 24 25 27 28 29 30 29 28 26 26 27 28 29 28 27 26 25 25 24 24 24 22 20 20 22 23 22 23 23 22 22 24 23 22 23 25 23 21 20 18 16 15 15 16 15 14 16 17 17 17 18 17 14 11 8 5 6 8 10 12 12
3 2 1 2 3 5 6 1 2 1 3 7 11 12 15 16 16 16 16 17 22 24 24 28 33 34 33 34 35 35 36 35 31 29 27 26 26 26 27 29 30 31 30 29 27 27 28 29 29 29 28 27 25 26 25 24 24 22 20 22 24 24 22 23 23 20 19 20 19 19 20 21 20 19 17 15 15 15 16 16 16 17 18 19 19 20 21 19 14 11 8 6 8 12 13 12 11
3 3 1 2 3 7 5 1 3 1 4 9 11 12 15 17 15 17 19 17 19 22 21 25 32 35 36 37 38 38 38 36 33 33 32 29 29 28 29 30 31 32 32 30 29 29 29 29 30 30 29 27 26 26 25 25 23 22 22 24 26 26 25 24 24 23 21 21 21 21 19 18 17 17 16 14 14 15 17 17 18 19 19 20 22 22 21 17 13 11 9 7 9 13 16 14 12
2 2 2 2 4 8 6 1 1 2 3 8 9 10 14 15 14 17 19 16 19 24 24 26 29 30 34 37 40 41 40 38 36 35 34 32 32 31 31 33 34 34 33 32 31 30 30 30 31 30 29 28 27 27 25 24 23 21 21 24 27 28 25 24 23 22 23 26 26 24 20 17 17 16 15 14 14 16 18 18 19 20 20 22 24 23 19 15 13 12 9 9 12 15 15 14 13
2 2 2 3 3 5 7 1 1 2 4 5 7 9 12 14 15 18 21 21 24 28 28 28 27 25 30 37 41 41 40 40 38 36 34 32 32 33 34 35 35 35 34 33 32 31 31 31 31 30 30 28 27 27 25 24 23 22 21 23 27 29 26 24 22 22 24 27 27 24 21 19 18 17 15 14 13 15 19 19 19 21 22 23 24 22 18 15 15 13 10 11 14 16 14 13 12
4 3 3 4 1 2 5 1 2 3 3 4 7 9 11 13 15 17 23 25 25 27 26 28 31 32 38 44 42 39 38 39 38 36 34 31 31 32 34 35 36 36 37 36 34 32 32 32 32 31 31 29 28 27 26 24 24 23 22 22 25 28 26 24 25 25 26 26 25 24 23 21 20 18 16 16 14 15 19 19 19 22 24 24 24 20 16 15 15 13 12 12 13 14 14 14 12
5 6 6 6 4 5 6 3 4 4 2 2 7 9 8 8 10 11 12 13 17 22 20 23 33 37 40 42 41 38 38 38 36 34 33 30 29 30 32 34 35 36 38 37 35 34 33 33 33 32 31 30 29 28 26 25 25 24 24 25 26 28 28 27 28 28 27 27 26 24 23 24 22 20 18 18 17 17 20 21 20 23 24 25 23 19 15 15 15 14 14 14 12 10 11 13 12
4 6 9 10 9 7 5 2 5 5 2 1 4 7 4 3 5 7 3 4 10 12 10 17 28 31 31 33 34 34 34 32 31 30 30 28 27 27 29 31 33 35 36 36 36 36 34 33 34 32 31 30 30 29 27 26 26 26 27 29 31 31 30 29 29 27 26 27 26 24 25 25 22 20 19 18 19 20 21 22 21 22 22 22 21 18 16 16 16 16 16 15 14 11 10 11 10
2 2 6 10 8 5 5 2 2 4 3 0 1 6 6 4 8 9 6 9 14 10 8 15 24 27 27 29 31 32 30 28 26 25 24 24 24 24 25 27 30 32 34 35 36 37 35 34 34 32 31 31 31 30 28 27 27 26 27 31 33 32 30 28 27 26 27 28 27 25 25 24 22 21 19 19 21 21 22 22 21 20 20 19 19 19 18 18 18 19 18 16 15 13 12 11 10
1 1 2 4 5 5 5 3 4 4 4 2 3 2 8 8 6 7 8 11 15 13 12 15 21 24 24 25 26 24 21 20 18 18 18 19 19 20 21 23 24 28 31 34 36 36 35 35 34 32 31 31 31 30 29 28 28 28 29 31 32 31 28 26 26 28 29 28 27 27 26 25 24 22 19 18 21 23 24 24 21 20 21 20 20 20 20 20 20 20 19 17 15 13 11 10 9
1 2 2 3 3 3 3 2 3 2 4 5 4 5 7 7 2 2 4 8 11 13 13 15 18 18 18 19 16 12 12 12 12 13 13 13 14 15 16 18 21 24 28 32 34 34 34 34 33 32 32 32 31 31 31 29 28 29 31 31 31 31 30 27 26 27 27 26 26 26 27 26 26 23 18 18 21 25 26 25 23 23 23 22 22 22 21 21 21 20 18 16 15 12 11 9 8
4 6 5 5 4 4 2 1 1 0 5 6 7 9 7 7 3 4 2 5 9 11 11 13 14 15 16 15 10 9 10 10 10 10 10 10 10 11 12 15 18 22 25 28 31 32 33 34 33 32 33 32 32 32 32 31 29 30 32 32 31 32 31 29 27 27 27 27 26 27 28 29 27 24 19 19 23 27 27 26 25 25 24 23 24 24 23 23 21 19 17 14 13 11 10 9 8
9 8 5 5 3 2 1 0 1 2 7 5 8 14 11 7 2 6 4 4 7 9 9 10 11 13 15 11 10 10 10 10 10 9 8 8 8 9 11 13 17 20 23 27 30 31 32 33 33 33 33 33 32 32 32 31 30 31 32 33 33 32 30 27 28 28 29 29 28 29 31 29 27 23 19 21 26 28 28 27 26 26 25 25 26 25 24 23 21 19 17 15 12 11 10 9 8
5 3 3 3 1 1 1 2 1 4 7 2 2 6 10 9 4 4 3 4 7 8 8 7 7 11 13 9 10 12 12 12 12 10 9 8 9 10 11 13 16 19 23 27 29 30 32 33 33 33 34 33 33 33 32 32 32 32 33 33 34 33 29 28 28 29 29 29 29 30 31 29 26 23 21 24 29 29 29 29 28 27 27 27 27 26 24 23 21 19 17 15 13 12 11 10 9
2 3 5 4 3 2 3 3 2 5 5 0 1 1 6 10 9 7 7 9 11 10 10 11 10 16 19 13 11 12 13 13 12 11 12 12 13 15 16 17 18 20 23 26 29 30 32 33 33 33 34 34 33 33 33 34 34 34 35 35 35 33 31 30 29 28 29 28 28 29 31 31 27 23 22 25 31 31 31 31 30 29 28 28 28 26 24 23 21 20 18 16 15 13 12 12 10
6 6 7 6 4 3 4 3 1 5 3 1 2 2 5 7 8 13 17 18 16 13 17 21 19 23 27 23 20 19 19 18 16 17 18 20 21 21 20 20 20 22 23 26 28 30 31 33 33 34 34 34 33 33 34 35 36 37 38 37 35 33 31 31 30 29 29 29 27 27 29 31 28 24 22 25 32 34 32 32 31 30 30 29 27 26 25 24 23 21 19 18 17 16 15 14 13
7 4 3 5 5 4 4 3 3 5 3 1 2 2 5 3 1 5 11 13 15 17 23 27 27 30 33 33 31 31 31 28 25 25 25 25 24 23 21 21 21 22 23 26 28 29 31 33 34 34 36 35 33 33 34 35 37 38 38 38 37 34 31 31 31 30 30 30 28 27 29 30 28 25 24 26 33 35 33 33 31 31 31 29 28 27 26 26 25 23 22 21 20 19 18 16 15
4 1 1 4 3 3 2 2 1 2 4 2 4 3 5 3 3 4 5 7 10 15 21 24 29 36 37 36 37 37 37 34 29 27 25 24 22 22 21 21 20 21 23 26 27 28 30 32 34 35 36 35 33 33 34 34 35 36 36 37 37 34 32 32 31 30 31 30 28 29 30 27 25 25 24 27 34 36 34 34 33 32 31 29 29 29 28 28 27 25 24 23 22 20 19 18 17
4 3 4 2 1 1 3 1 2 1 5 4 3 6 7 5 7 9 9 10 9 9 13 16 26 35 31 31 36 37 35 32 28 26 24 22 22 21 21 21 21 21 23 25 27 27 28 30 33 35 36 36 35 34 34 34 35 34 33 34 35 35 34 33 30 29 30 30 30 30 28 25 24 25 25 28 35 36 35 35 35 33 32 31 31 31 30 29 28 27 26 24 22 21 20 19 18
4 4 5 3 2 1 3 3 1 2 6 4 3 7 8 5 6 3 6 8 11 11 11 13 22 27 24 28 35 34 31 30 27 25 22 21 20 20 20 20 21 21 23 25 25 25 27 29 32 34 36 37 35 34 34 34 34 34 34 34 34 34 33 30 29 28 30 32 32 30 26 24 25 25 25 31 37 37 36 37 36 34 33 33 33 32 31 30 28 27 25 23 22 22 21 20 19
1 1 3 2 2 3 4 4 4 3 5 4 3 5 8 9 7 2 6 8 10 10 10 12 16 17 21 31 35 30 27 26 23 20 18 18 17 16 17 18 20 21 22 24 24 25 26 28 30 33 35 36 34 33 33 33 34 35 35 34 33 32 31 29 29 30 32 33 31 28 25 25 26 25 27 34 38 37 38 38 37 36 35 35 34 33 31 30 28 26 25 24 23 22 21 19 17
2 0 2 1 2 2 3 3 2 4 4 4 3 4 8 9 6 5 9 11 10 10 9 8 10 15 25 31 28 21 18 17 16 15 15 14 13 13 14 15 17 19 21 23 24 25 26 27 30 33 35 36 35 33 32 33 35 36 35 35 34 34 33 31 30 32 35 34 30 28 26 25 26 27 29 36 38 37 39 39 38 37 36 35 34 33 31 30 28 27 25 25 24 22 21 19 16
5 6 7 5 2 0 2 2 0 2 3 3 3 7 10 4 5 6 10 11 12 13 9 5 8 18 23 21 16 13 13 13 13 13 11 11 11 11 13 14 16 17 19 22 24 25 26 27 30 33 35 36 35 33 33 33 35 36 36 37 36 36 36 33 32 35 37 33 28 27 26 24 25 28 32 36 38 39 40 40 39 38 36 35 34 33 31 30 29 28 26 26 24 23 21 19 16
6 7 9 10 8 5 3 4 2 1 3 3 2 7 11 2 4 5 8 8 10 12 9 6 12 21 19 14 13 12 13 13 13 11 10 9 9 10 12 13 15 17 19 22 24 25 27 29 30 32 35 36 35 34 33 33 35 37 37 36 35 35 36 35 35 38 37 32 27 26 26 24 26 30 33 37 39 40 41 41 39 38 36 35 34 32 31 30 29 28 27 26 24 22 20 18 16
Wind_Direction
140 137 134 131 125 125 108 122 139 58 315 70 79 188 124 97 353 185 164 163 175 135 177 150 143 167 172 340 322 351 344 275 333 340 349 136 157 165 172 171 167 165 160 155 154 154 152 148 144 143 141 133 127 125 125 124 120 120 119 118 115 107 102 97 94 90 85 80 75 74 73 73 78 77 71 67 64 61 58 58 59 58 60 62 62 60 61 64 67 75 84 89 93 97 97 91 81
143 138 132 129 126 138 106 9 291 99 223 103 125 336 91 136 216 174 149 126 71 114 146 138 141 167 194 329 257 291 235 234 247 64 152 153 154 165 174 173 168 166 165 162 156 157 156 148 146 146 146 138 130 131 131 133 131 129 128 124 120 113 108 103 100 97 90 83 78 78 77 80 83 79 73 70 65 61 58 58 59 58 59 62 64 64 64 66 71 79 86 91 93 93 93 90 82
145 139 132 126 116 115 108 17 354 140 17 69 118 113 124 172 173 137 103 91 106 122 129 131 139 160 208 237 209 265 270 224 198 148 148 148 149 170 176 175 170 166 168 166 159 160 156 150 152 150 153 145 134 135 132 132 132 133 136 131 126 124 119 113 107 101 92 83 79 80 82 86 86 80 73 69 64 59 57 58 58 58 60 63 66 68 69 70 76 81 85 92 97 94 93 92 85
146 142 136 128 122 105 100 351 49 203 43 49 95 134 175 182 146 114 107 117 119 121 122 140 146 171 223 247 205 255 74 175 174 145 151 156 157 174 177 176 170 167 169 166 164 162 159 158 159 160 161 151 142 140 135 129 125 129 135 135 134 131 127 125 115 102 92 83 80 83 87 84 79 77 71 65 62 57 55 57 56 58 59 63 66 69 72 75 80 84 86 92 98 98 97 94 87
146 144 141 141 152 100 81 90 105 267 50 59 74 140 185 171 140 129 132 140 130 118 115 164 156 167 215 225 196 252 147 156 166 154 159 165 164 171 178 178 170 170 169 165 166 163 165 166 163 167 165 155 151 147 140 132 127 128 133 141 141 136 133 130 119 105 94 87 85 88 89 78 72 73 70 64 60 55 54 55 56 58 59 63 67 70 74 78 83 88 93 96 99 100 99 96 90
144 139 136 130 110 95 157 130 128 124 55 349 39 133 173 160 148 140 141 155 160 155 138 206 247 163 176 199 209 185 155 157 167 168 167 168 168 172 177 177 172 171 171 168 166 166 168 167 166 167 167 160 155 152 145 139 136 137 142 151 154 145 140 137 132 118 101 94 93 96 92 76 71 74 72 67 62 57 53 54 56 58 59 62 68 75 77 81 87 91 96 100 102 102 99 93 86
143 132 126 124 86 46 225 78 92 119 70 341 18 115 158 153 151 145 150 168 192 225 222 234 227 194 181 167 189 171 165 163 170 178 178 173 171 176 178 177 175 172 172 172 169 172 172 167 169 169 172 168 159 158 151 147 143 142 147 155 163 156 148 145 141 127 112 104 101 106 100 86 82 79 74 71 66 59 52 53 56 56 56 60 65 73 78 82 89 94 97 98 98 96 93 87 79
147 135 130 142 77 5 194 98 76 76 76 319 330 77 143 152 159 158 165 176 186 202 220 222 204 221 168 149 172 179 173 166 173 179 181 181 176 179 179 178 177 175 175 177 175 177 176 170 172 172 176 175 167 164 155 155 147 143 146 144 159 164 159 150 144 130 118 111 105 107 102 96 97 87 79 77 69 59 53 54 55 55 55 57 61 66 70 75 82 88 91 91 90 88 84 80 74
143 135 130 153 132 106 127 137 107 57 119 172 251 214 164 166 168 174 174 182 190 175 198 199 195 233 146 168 200 188 186 174 175 177 180 187 184 183 183 181 178 178 180 180 179 182 180 175 177 175 177 183 176 169 160 157 147 142 146 140 146 164 169 157 145 134 124 116 109 110 106 106 110 96 85 81 71 62 56 57 56 57 58 58 62 65 66 69 76 82 85 85 83 81 79 76 72
126 122 119 133 167 157 157 172 142 129 146 152 233 189 181 175 172 186 181 183 190 179 192 190 196 243 181 187 208 191 192 181 177 178 181 188 186 186 184 183 181 182 183 182 181 186 187 180 182 179 180 189 179 169 165 159 145 145 148 144 146 164 174 166 152 142 131 124 120 118 114 116 114 100 88 80 71 65 58 56 59 60 61 63 66 69 70 72 75 79 81 81 80 79 77 75 72
116 113 128 164 185 192 188 174 168 151 124 191 216 179 182 178 171 182 187 188 184 180 186 188 196 215 208 207 218 201 191 184 183 182 183 184 184 186 185 184 184 185 186 186 184 186 191 185 184 182 184 191 181 173 173 166 151 155 158 153 158 168 176 174 164 153 140 131 129 126 123 126 116 106 90 78 68 65 59 58 62 63 65 68 71 73 74 75 76 79 80 80 80 80 78 77 75
139 121 165 202 195 215 192 170 168 151 152 192 170 168 179 175 177 187 194 194 176 185 190 192 195 192 199 219 220 205 193 192 188 186 188 185 182 184 186 187 186 187 187 189 191 190 188 187 190 188 187 193 190 180 178 177 163 164 167 163 166 169 179 181 176 169 151 141 142 142 139 131 122 113 87 73 63 63 59 59 64 65 69 73 75 75 76 77 78 80 82 83 83 83 82 81 79
152 145 197 191 148 30 144 162 151 151 198 188 155 165 173 173 194 196 185 190 177 187 196 197 202 203 208 230 218 207 199 198 192 190 192 190 186 186 188 191 191 189 188 189 198 202 191 186 195 194 187 192 199 189 183 186 177 174 175 175 172 169 181 188 189 186 172 160 163 171 169 166 147 130 81 66 56 59 57 58 66 67 71 76 79 78 77 79 80 83 86 88 88 88 87 85 81
146 137 204 152 95 111 149 127 154 201 196 155 136 163 171 177 205 195 183 200 195 198 206 204 204 214 220 211 210 209 204 200 197 193 193 195 191 191 190 192 195 194 195 193 199 207 198 192 196 195 192 193 203 200 189 189 188 184 182 185 178 172 181 189 196 197 191 183 182 191 198 220 215 208 96 56 47 53 53 57 67 70 73 78 82 79 79 80 82 86 90 92 91 89 88 84 79
150 124 73 127 138 169 186 252 163 216 187 140 153 165 172 188 199 193 203 213 209 212 215 205 203 203 220 205 186 205 208 200 199 198 195 198 197 197 196 195 197 199 201 199 200 206 202 201 202 200 198 199 205 203 194 191 194 191 188 190 184 179 182 187 197 202 200 195 193 199 209 224 232 237 246 41 40 43 46 57 72 80 79 82 87 83 82 83 85 90 92 92 90 87 83 79 75
152 125 87 158 165 195 191 183 162 216 169 135 160 165 171 199 198 195 214 219 216 217 216 202 205 212 233 215 196 198 207 203 201 202 198 198 200 201 202 203 202 201 201 202 203 205 204 205 206 207 205 203 205 204 201 199 198 196 195 197 190 185 189 189 195 203 205 204 201 202 212 223 236 247 256 8 30 27 23 46 80 99 92 90 95 91 88 90 92 95 95 93 89 84 79 75 71
150 144 196 188 187 204 180 175 172 188 143 139 162 173 177 185 197 206 219 217 214 218 218 219 218 223 229 216 212 201 205 209 206 205 202 201 203 204 207 211 210 203 201 203 204 206 208 207 208 211 210 207 204 202 207 210 203 198 203 205 197 192 195 196 199 206 208 209 207 205 215 221 230 247 253 254 251 263 283 320 112 125 109 101 102 98 92 95 100 102 100 94 87 81 75 71 65
152 176 208 204 191 184 178 181 176 115 145 158 172 186 190 175 183 200 212 211 216 226 225 229 232 231 233 228 223 217 211 214 214 212 208 204 206 206 208 214 216 206 201 203 205 207 210 211 212 213 214 213 208 204 208 212 206 202 209 209 203 198 198 200 204 209 212 216 214 206 212 220 225 240 246 239 241 249 257 256 194 151 125 113 111 108 99 98 105 107 103 93 84 76 69 65 59
127 143 214 217 178 147 172 180 165 81 134 154 169 188 197 187 170 188 209 201 204 224 230 231 236 235 235 235 231 230 224 220 220 220 216 211 211 210 210 215 220 213 207 207 205 207 210 213 217 216 217 219 217 212 210 214 213 211 216 213 206 203 201 203 208 212 214 214 213 205 209 220 222 230 240 237 238 248 251 240 200 183 152 125 123 122 113 107 107 106 101 89 81 72 63 62 56
89 181 226 213 143 101 179 181 153 96 97 143 166 185 196 198 175 187 214 206 202 226 228 222 232 236 237 237 236 237 236 231 225 224 224 219 217 216 215 219 224 220 214 212 204 204 209 213 217 217 218 223 224 220 216 218 219 217 221 219 211 205 203 205 210 214 212 208 208 209 210 218 225 229 238 241 239 242 246 238 205 195 169 136 137 137 125 115 109 103 96 86 77 71 61 59 56
129 207 269 66 141 169 157 183 170 129 102 144 163 174 194 202 192 193 199 217 224 232 233 229 235 240 243 243 241 242 242 240 233 229 229 225 221 220 220 222 228 225 219 218 207 201 205 211 213 216 219 223 226 222 216 216 220 220 221 221 215 210 208 209 212 215 213 208 207 211 212 218 231 234 237 247 248 242 241 235 216 214 178 148 149 150 136 123 113 98 85 81 74 69 62 57 54
122 29 2 63 147 115 128 180 192 197 168 154 162 171 195 194 202 208 203 226 238 235 239 240 243 246 250 249 245 244 243 243 239 235 234 231 226 224 225 225 229 228 223 222 216 207 205 209 213 217 221 222 226 224 216 217 223 223 221 220 218 215 212 213 216 216 216 216 213 212 212 217 231 235 239 248 249 246 243 227 212 213 192 166 162 158 148 134 119 93 72 64 66 65 64 60 50
140 60 83 126 104 56 126 174 200 201 178 166 174 187 192 186 214 223 217 230 240 247 252 249 247 246 249 249 245 244 243 243 243 241 239 237 234 230 230 229 230 230 225 224 223 215 209 210 213 217 221 222 227 227 221 221 224 226 227 227 225 222 216 215 220 218 217 220 220 217 217 218 226 233 237 242 242 244 248 236 222 216 202 184 174 166 162 148 123 92 68 53 59 70 69 63 53
245 117 148 164 94 39 134 164 188 180 183 188 185 191 188 192 222 237 232 237 241 251 258 258 258 254 251 252 252 250 246 245 245 243 240 239 240 237 234 232 231 231 230 228 226 220 215 214 214 216 220 222 226 229 228 225 224 226 229 232 231 229 224 219 221 220 218 221 221 220 220 218 224 235 236 237 234 235 250 251 245 232 214 199 185 175 172 157 128 110 90 55 62 81 75 63 62
47 130 157 172 110 354 134 143 165 166 186 188 185 190 186 208 239 261 251 249 250 253 256 257 258 256 252 252 254 255 252 248 245 242 238 237 238 237 235 232 231 231 231 232 230 227 223 220 219 220 222 223 226 230 233 223 214 219 223 225 228 233 236 229 223 221 220 223 223 220 219 217 221 229 233 237 231 228 252 262 252 235 220 211 196 186 178 159 142 169 130 65 72 84 72 61 67
57 124 148 157 114 35 109 139 155 164 181 179 199 194 181 224 254 266 258 258 260 256 254 254 253 253 252 250 251 251 252 253 250 246 241 237 236 236 235 232 230 229 230 231 232 232 232 227 223 224 226 228 227 229 232 219 206 212 215 216 227 238 243 237 230 225 223 225 224 224 227 225 222 218 223 235 236 235 246 258 248 226 214 210 199 193 180 161 159 181 139 73 92 86 66 65 73
98 119 131 131 87 58 114 153 159 189 212 219 235 209 181 220 229 258 253 252 256 254 254 254 253 253 253 251 250 247 246 247 248 248 244 238 235 236 235 234 233 231 230 229 229 230 231 230 225 223 224 226 227 227 229 220 209 211 208 211 231 240 242 241 233 227 227 227 226 230 235 233 227 218 220 230 235 236 240 254 248 222 210 205 198 197 183 169 168 173 159 125 117 94 70 79 87
100 127 150 131 54 97 140 161 178 205 224 228 255 267 219 169 213 244 241 243 251 254 255 255 255 256 256 255 250 246 243 240 240 242 241 240 238 237 236 236 236 235 233 231 231 230 227 227 226 223 219 219 222 223 225 222 218 215 213 216 224 229 237 243 235 225 225 229 232 234 238 237 230 221 220 225 226 231 234 240 242 224 213 205 198 198 188 179 171 169 168 146 127 99 78 91 106
91 97 184 195 259 199 139 156 198 207 226 188 249 273 231 192 226 243 244 252 259 261 260 259 258 259 259 258 253 249 245 239 236 236 238 240 241 240 238 238 238 237 236 234 234 232 228 226 225 223 221 219 219 220 222 224 225 223 222 220 215 219 230 236 234 225 221 227 232 236 242 234 224 220 223 224 222 231 237 229 226 223 216 209 204 200 192 181 160 167 173 149 125 99 91 103 123
104 64 325 260 250 230 111 82 196 199 213 156 165 276 242 196 226 242 250 257 262 264 264 263 262 262 260 258 257 255 251 245 241 239 238 239 241 239 236 235 235 235 234 235 237 235 232 228 227 225 223 222 220 222 223 224 227 229 230 226 219 222 228 233 234 226 220 221 222 232 238 223 215 220 224 224 220 224 232 220 212 222 218 212 207 196 188 179 161 192 182 153 125 107 107 118 136
64 353 278 270 257 203 107 109 176 194 194 159 175 266 263 207 227 240 252 258 262 264 264 265 265 264 261 258 257 257 255 252 249 245 241 239 240 239 235 232 231 231 232 236 239 238 234 229 229 227 224 224 223 224 226 225 227 230 232 233 229 228 231 234 230 221 222 220 216 224 226 218 220 228 225 220 215 219 226 216 212 226 220 209 200 192 194 198 196 192 179 158 128 121 126 134 149
24 261 203 111 255 243 107 145 181 218 156 166 190 255 266 269 274 260 259 256 253 257 261 264 266 266 263 260 258 256 256 255 253 248 243 239 239 238 236 234 231 232 235 239 242 239 235 230 228 228 227 227 227 228 230 229 230 229 230 232 232 231 231 228 220 219 224 219 213 215 222 227 232 234 225 214 209 220 228 216 208 217 217 206 197 196 206 216 205 187 179 166 148 150 158 159 160
70 264 246 137 234 283 349 122 120 331 108 189 220 267 276 266 285 265 260 261 255 257 263 265 265 267 265 263 262 260 259 257 255 251 247 242 240 238 237 236 235 236 239 244 245 241 236 230 228 228 229 230 232 232 233 233 233 231 228 227 226 222 220 221 220 223 226 222 214 211 221 229 229 230 223 209 201 213 221 211 199 205 214 208 204 204 207 209 195 185 182 166 163 189 184 173 163
166 219 252 227 240 273 269 138 106 176 221 222 226 248 265 263 256 248 258 279 281 269 268 272 271 270 269 268 267 264 263 260 256 253 251 248 244 241 239 238 239 239 242 244 245 242 236 230 228 228 229 231 232 234 234 233 234 232 225 221 216 209 213 221 221 221 222 219 215 217 226 229 225 219 211 203 199 210 220 211 204 214 222 219 217 218 213 201 185 181 186 178 188 198 187 175 162
175 192 214 236 226 239 263 267 119 161 232 238 226 237 259 265 266 265 265 270 273 270 271 275 274 273 273 272 270 267 265 262 259 257 255 253 249 245 241 240 240 241 242 243 243 241 235 230 228 228 230 231 232 233 233 231 231 228 220 212 206 204 211 213 208 209 211 210 216 228 231 224 215 204 201 205 205 212 224 221 224 230 224 219 218 220 210 192 178 182 192 204 196 181 177 173 162
126 149 206 251 251 251 256 271 96 187 243 243 239 246 258 265 269 271 272 269 268 269 270 272 272 273 272 272 271 268 265 262 261 261 258 254 251 249 245 242 241 242 242 242 242 240 235 230 229 229 230 231 232 232 231 228 225 219 212 204 201 202 206 205 206 212 212 212 219 223 215 203 197 197 201 208 209 213 219 224 236 231 218 217 218 217 204 185 179 186 187 197 191 174 170 171 166
101 108 213 245 267 269 263 90 86 148 255 252 244 252 262 267 272 274 275 275 270 267 264 264 267 269 269 270 270 269 267 265 264 262 260 256 251 249 247 244 242 241 240 239 239 238 236 231 229 229 231 231 231 232 230 227 222 215 207 201 200 203 207 215 225 228 225 222 216 208 201 195 199 206 205 206 212 216 216 221 229 222 215 218 216 209 197 185 184 187 184 190 194 182 172 170 169
109 181 239 247 238 265 275 336 86 141 231 262 259 261 264 266 270 271 272 269 262 261 258 258 262 265 268 269 269 269 269 268 266 264 261 258 253 249 246 244 242 241 240 238 237 236 235 232 231 230 232 231 231 230 227 225 222 215 208 203 203 204 207 215 222 223 220 215 210 208 211 214 216 213 206 205 212 218 221 221 222 217 213 214 208 196 189 188 187 188 197 198 191 187 179 175 174
168 195 236 254 236 274 276 252 80 167 222 269 284 279 274 270 269 264 260 255 255 255 253 257 262 264 265 266 268 269 270 270 269 266 263 260 257 252 247 244 243 242 241 239 237 236 234 233 232 232 232 231 230 227 223 220 217 212 209 206 207 208 207 209 211 212 211 206 206 214 221 226 223 214 207 206 211 222 223 217 217 214 206 204 198 189 187 190 189 191 207 207 190 185 185 183 178
206 202 221 243 199 276 263 236 82 181 220 299 300 288 278 267 262 255 251 250 256 259 257 259 261 261 263 265 266 266 268 270 271 271 269 264 258 254 250 246 244 241 240 239 237 236 235 233 232 231 231 230 228 225 220 216 212 208 206 208 211 211 207 208 209 211 213 213 214 219 225 227 220 212 209 205 211 224 219 212 219 213 199 193 191 192 195 192 194 198 199 200 194 187 186 184 181
214 209 223 240 231 233 244 333 332 239 190 321 298 285 266 250 251 252 252 250 258 262 259 260 260 260 263 265 266 266 267 268 270 272 273 270 263 257 254 250 245 240 239 240 238 237 236 233 232 231 230 229 226 223 218 212 208 203 202 206 209 207 207 212 212 212 217 220 220 220 220 216 209 207 207 204 209 217 212 209 215 207 193 188 189 195 201 197 197 199 190 187 191 191 187 185 184
226 209 219 236 245 247 245 334 330 279 223 131 324 305 272 201 239 254 264 263 261 254 243 256 263 264 263 265 267 269 270 272 273 272 272 271 267 260 254 250 246 243 241 242 239 238 237 234 233 231 228 227 225 223 219 211 205 203 202 200 199 201 208 214 214 214 217 216 216 214 209 204 203 205 203 202 206 208 206 203 200 194 187 188 189 190 197 201 197 191 186 182 181 182 183 188 189
258 197 212 232 242 252 249 239 258 275 284 208 356 313 290 246 232 240 247 262 266 261 248 258 265 266 263 265 270 272 274 277 276 274 271 268 264 259 254 250 249 246 244 242 239 237 235 234 234 230 227 226 224 222 219 212 204 204 205 203 203 208 215 216 215 216 215 212 210 207 204 203 204 203 199 199 200 202 204 199 193 191 194 194 190 189 195 200 194 187 184 180 178 178 178 183 187
247 106 161 200 205 219 227 217 227 272 326 287 174 236 281 271 233 230 240 254 266 271 269 266 264 264 266 270 274 273 273 273 272 271 268 265 261 257 255 252 250 247 244 241 240 238 236 235 234 230 225 224 222 220 217 213 208 204 207 210 213 218 221 220 217 212 209 206 205 205 206 206 202 198 198 198 200 203 203 197 192 193 195 193 191 194 196 194 190 186 183 179 178 179 176 177 182
24 106 116 133 155 177 169 194 232 291 324 278 170 155 267 273 183 158 246 244 257 263 262 264 263 264 270 274 275 270 264 265 268 271 269 264 258 253 252 251 248 246 244 243 243 242 240 237 234 229 225 222 220 218 215 213 210 208 209 212 215 217 216 214 211 208 207 207 209 209 206 202 199 198 200 203 205 203 196 192 193 193 191 192 196 195 192 191 190 186 184 181 178 177 174 176 184
127 132 104 93 92 84 106 221 230 217 279 259 171 168 248 278 165 150 208 225 240 251 253 259 265 271 275 273 262 253 258 264 269 271 267 260 249 240 237 239 241 241 242 243 243 243 240 236 232 227 223 221 219 216 213 211 208 209 211 213 214 211 208 209 210 213 214 212 213 212 204 199 198 200 204 206 203 197 190 190 193 192 191 196 197 191 187 189 189 185 184 182 177 175 175 180 188
136 140 112 100 97 82 100 349 43 267 267 253 173 184 222 268 184 170 189 203 222 235 246 255 263 272 275 264 240 239 249 260 265 263 255 245 236 227 225 229 233 236 238 238 240 241 238 236 231 226 223 220 217 215 213 210 208 209 211 212 211 208 208 211 214 215 214 212 210 207 202 197 197 201 205 204 200 195 190 190 190 190 194 197 193 187 185 187 186 184 184 180 177 178 182 189 194
149 152 140 137 155 142 181 184 144 250 257 275 145 199 228 245 227 190 210 238 236 234 243 254 265 271 269 250 232 237 240 247 252 252 245 238 239 241 239 238 236 236 236 236 238 237 236 234 230 225 223 219 215 214 212 210 209 211 213 212 211 213 216 217 216 215 214 210 207 203 199 195 196 200 202 201 199 195 192 190 189 191 194 193 188 186 186 186 185 185 183 182 183 186 189 193 199
217 168 162 194 225 211 237 211 178 245 252 13 57 237 247 249 251 255 255 249 241 233 238 248 258 266 266 257 241 241 242 244 244 245 248 250 256 259 256 252 247 243 241 239 239 236 233 232 228 224 223 220 215 213 211 209 210 211 213 213 214 217 218 216 217 218 216 212 207 204 202 200 200 201 204 204 200 197 196 193 191 193 192 189 187 187 186 186 188 187 185 187 189 192 193 193 198
196 182 174 197 208 217 237 211 230 266 265 84 140 195 250 264 260 242 238 238 233 229 240 250 257 263 266 265 258 255 254 252 250 251 257 262 265 266 262 256 252 249 245 242 240 237 233 230 227 223 222 222 218 214 211 209 209 211 213 214 215 217 214 213 217 218 217 215 210 209 211 210 210 214 218 214 205 201 199 195 193 193 191 188 189 189 187 188 191 190 190 191 193 195 194 193 196
195 189 183 210 199 204 232 221 243 274 304 155 165 201 234 244 323 233 241 252 244 238 244 252 258 259 263 267 267 267 264 262 263 264 266 266 265 262 259 255 251 248 245 243 242 238 234 231 227 222 222 223 220 216 212 210 211 213 213 213 214 215 214 214 218 220 219 215 211 212 216 215 218 226 230 221 209 204 201 197 195 193 191 191 191 191 191 192 193 193 194 195 196 197 196 196 198
195 113 207 237 211 193 250 288 263 318 320 254 190 235 246 249 298 259 256 273 253 244 246 250 255 255 258 265 267 268 269 270 272 272 271 269 264 260 257 254 251 246 243 242 241 238 235 231 227 223 222 223 221 218 215 212 212 213 212 211 211 212 213 214 218 220 217 212 209 211 212 216 224 231 234 223 210 204 200 196 194 193 193 193 194 195 195 195 196 197 198 198 199 199 198 200 202
158 163 199 223 353 209 222 247 75 96 274 262 195 250 275 290 272 232 216 240 241 239 244 243 248 251 254 259 260 264 270 273 274 274 274 272 264 257 255 252 249 244 242 242 241 239 236 232 228 223 221 223 222 219 217 213 211 210 210 210 209 209 210 212 216 218 213 207 205 206 211 222 231 233 231 218 206 202 199 196 194 193 195 196 197 199 198 199 200 200 200 200 201 202 201 203 205
132 186 188 140 29 312 233 243 216 185 256 267 207 255 274 271 266 208 167 226 240 237 236 239 247 250 252 255 256 260 266 271 275 276 274 270 261 251 247 247 247 244 243 244 244 241 236 233 229 224 222 224 222 219 218 215 211 208 209 208 207 208 209 212 215 214 210 205 202 205 216 228 231 230 224 209 202 201 199 197 196 196 198 198 200 202 202 202 203 203 203 203 204 206 206 207 207
43 222 169 151 226 208 182 219 241 222 246 263 234 263 266 236 233 206 161 199 229 234 229 233 243 244 245 251 256 261 265 269 273 272 268 264 260 253 247 246 246 245 243 243 243 241 236 232 228 224 223 225 224 221 218 216 211 208 209 208 207 209 211 214 214 209 204 202 204 211 223 229 228 225 217 205 202 202 201 199 198 199 201 202 203 204 205 205 205 205 205 205 207 209 209 211 211
1 291 178 245 285 224 177 174 235 232 235 271 282 282 265 234 204 197 194 192 204 216 218 224 237 237 240 250 257 259 257 257 258 258 259 258 254 248 245 245 246 246 245 242 240 238 235 231 226 223 223 224 224 221 218 216 212 208 208 207 207 209 213 217 216 206 201 201 208 219 227 230 228 222 214 207 205 205 203 201 201 203 204 205 205 206 207 207 207 207 208 208 209 209 209 212 212
182 194 189 190 179 290 254 188 209 257 232 258 277 273 268 242 141 177 194 190 200 213 215 208 235 243 245 250 251 240 231 232 238 241 242 240 238 237 238 241 242 241 240 239 238 236 234 232 228 224 223 223 223 220 217 215 212 209 208 208 210 212 213 216 214 204 199 204 213 222 228 232 228 220 213 210 209 208 206 205 205 206 206 207 208 208 208 208 208 208 209 210 211 211 210 211 212
184 196 193 193 176 154 202 202 181 246 241 228 231 271 272 254 122 177 187 185 200 210 210 195 222 241 246 237 227 222 223 224 220 217 216 216 222 229 234 240 242 240 237 236 235 235 233 232 230 226 224 224 222 219 217 215 212 210 209 209 213 215 211 212 210 201 200 209 218 224 230 234 228 217 211 210 211 210 209 208 209 209 209 209 210 211 210 210 210 210 211 212 212 212 211 212 213